This demonstration page uses our WeatherBlox Daily Observations layout. Learn more.

Hourly Observations for February 17, 2017

Temp ( °F °C ) Dew Point ( °F °C ) Humidity (%) Winds ( mph kmh ) Pressure ( in mb ) Visibility ( mi km ) Precip ( " mm )
12:15 am 00:15 Clear 46 7.6 18 -8 32 32 SSW 9 15 29.62 1003 10 16.0934 0 0
12:35 am 00:35 Clear 47 8.3 17 -8.1 31 31 SSW 10 17 29.62 1003 10 16.0934 0 0
12:55 am 00:55 Clear 46 7.7 17 -8.1 32 32 SW 10 17 29.62 1003 10 16.0934 0 0
1:15 am 01:15 Clear 46 7.8 17 -8.2 32 32 SW 9 15 29.62 1003 10 16.0934 0 0
1:35 am 01:35 Clear 45 7.2 17 -8.1 33 33 SW 8 13 29.62 1003 10 16.0934 0 0
1:55 am 01:55 Clear 44 6.4 18 -7.9 35 35 SW 8 13 29.62 1003 10 16.0934 0 0
2:15 am 02:15 Clear 44 6.7 18 -7.7 35 35 SW 9 15 29.62 1003 10 16.0934 0 0
2:35 am 02:35 Clear 46 8 18 -7.8 32 32 SW 10 17 29.62 1003 10 16.0934 0 0
2:55 am 02:55 Clear 48 8.7 18 -8 30 30 WSW 10 17 29.59 1002 10 16.0934 0 0
3:15 am 03:15 Clear 48 8.7 18 -8 30 30 SW 10 17 29.59 1002 10 16.0934 0 0
3:35 am 03:35 Clear 43 5.9 18 -8 36 36 SW 8 13 29.62 1003 10 16.0934 0 0
3:55 am 03:55 Clear 41 5.1 18 -7.6 40 40 SW 7 11 29.65 1004 10 16.0934 0 0
4:15 am 04:15 Clear 42 5.3 19 -7.2 40 40 SW 7 11 29.65 1004 10 16.0934 0 0
4:35 am 04:35 Clear 43 5.9 19 -7.3 38 38 WSW 6 9 29.59 1002 10 16.0934 0 0
4:55 am 04:55 Clear 45 7 18 -7.6 35 35 WSW 6 9 29.59 1002 10 16.0934 0 0
5:15 am 05:15 Clear 45 7.1 18 -7.7 34 34 WSW 5 7 29.59 1002 10 16.0934 0 0
5:35 am 05:35 Clear 38 3.4 19 -7 47 47 WNW 3 6 29.62 1003 10 16.0934 0 0
5:55 am 05:55 Clear 36 2 20 -6.9 52 52 NW 5 7 29.68 1005 10 16.0934 0 0
6:15 am 06:15 Clear 35 1.4 20 -6.9 54 54 WNW 5 7 29.68 1005 10 16.0934 0 0
6:35 am 06:35 Clear 31 -0.4 19 -7.2 60 60 WNW 7 11 29.68 1005 10 16.0934 0 0
6:55 am 06:55 Clear 34 1 19 -7.4 54 54 SW 3 6 29.68 1005 10 16.0934 0 0
7:15 am 07:15 Clear 34 0.9 19 -7 56 56 SSW 7 11 29.68 1005 10 16.0934 0 0
7:35 am 07:35 Sunny 33 0.3 19 -7 58 58 SW 3 6 29.68 1005 10 16.0934 0 0
7:55 am 07:55 Sunny 33 0.3 19 -7 58 58 SW 5 7 29.68 1005 10 16.0934 0 0
8:15 am 08:15 Sunny 35 1.4 20 -6.6 56 56 SW 3 6 29.68 1005 10 16.0934 0 0
8:35 am 08:35 Sunny 37 2.7 22 -5.6 55 55 W 3 6 29.68 1005 10 16.0934 0 0
8:55 am 08:55 Sunny 44 6.7 22 -5.4 42 42 W 5 7 29.65 1004 10 16.0934 0 0
9:15 am 09:15 Sunny 50 9.9 21 -6.3 32 32 W 5 7 29.62 1003 10 16.0934 0 0
9:35 am 09:35 Sunny 52 10.9 21 -5.9 31 31 WNW 6 9 29.62 1003 10 16.0934 0 0
9:55 am 09:55 Sunny 54 12.4 22 -5.5 28 28 NW 6 9 29.59 1002 10 16.0934 0 0
10:15 am 10:15 Sunny 58 14.4 23 -5.1 26 26 NW 8 13 29.59 1002 10 16.0934 0 0
10:35 am 10:35 Sunny 61 15.9 23 -4.9 24 24 NNW 8 13 29.56 1001 10 16.0934 0 0
10:55 am 10:55 Sunny 62 16.6 23 -5 22 22 NNW 9 15 29.56 1001 10 16.0934 0 0
11:15 am 11:15 Sunny 64 17.7 24 -4.2 22 22 NNW 9 15 29.56 1001 10 16.0934 0 0
11:35 am 11:35 Sunny 65 18.1 24 -4.5 21 21 NNW 12 19 29.56 1001 10 16.0934 0 0
11:55 am 11:55 Sunny 67 19.2 25 -4 21 21 N 12 19 29.56 1001 10 16.0934 0 0
12:15 pm 12:15 Sunny 68 20.2 25 -4.1 19 19 N 10 17 29.53 1000 10 16.0934 0 0
12:35 pm 12:35 Sunny 69 20.8 24 -4.4 18 18 N 12 19 29.53 1000 10 16.0934 0 0
12:55 pm 12:55 Sunny 70 21.1 25 -4.1 18 18 N 8 13 29.53 1000 10 16.0934 0 0
1:15 pm 13:15 Sunny 71 21.4 24 -4.4 17 17 N 9 15 29.53 1000 10 16.0934 0 0
1:35 pm 13:35 Sunny 71 21.5 25 -3.9 18 18 N 12 19 29.5 999 10 16.0934 0 0
1:55 pm 13:55 Sunny 70 21.3 26 -3.4 19 19 N 10 17 29.5 999 10 16.0934 0 0
2:15 pm 14:15 Sunny 71 21.7 27 -3 19 19 N 12 19 29.5 999 10 16.0934 0 0
2:35 pm 14:35 Sunny 71 21.5 25 -3.8 18 18 NNE 13 20 29.5 999 10 16.0934 0 0
2:55 pm 14:55 Sunny 71 21.6 26 -3.6 18 18 N 12 19 29.5 999 10 16.0934 0 0
3:15 pm 15:15 Sunny 71 21.6 26 -3.6 18 18 N 14 22 29.53 1000 10 16.0934 0 0
3:35 pm 15:35 Sunny 71 21.4 26 -3.1 19 19 N 15 24 29.53 1000 10 16.0934 0 0
3:55 pm 15:55 Sunny 70 20.9 26 -3.6 19 19 NNE 16 26 29.53 1000 10 16.0934 0 0
4:15 pm 16:15 Sunny 69 20.4 27 -3 21 21 N 17 28 29.53 1000 10 16.0934 0 0
4:35 pm 16:35 Sunny 67 19.6 27 -2.7 22 22 NNE 17 28 29.53 1000 10 16.0934 0 0
4:55 pm 16:55 Sunny 66 19 28 -2.2 24 24 NNE 17 28 29.56 1001 10 16.0934 0 0
5:15 pm 17:15 Sunny 65 18.2 29 -1.7 26 26 NNE 16 26 29.59 1002 10 16.0934 0 0
5:35 pm 17:35 Sunny 62 16.4 29 -1.7 29 29 NNE 13 20 29.59 1002 10 16.0934 0 0
5:55 pm 17:55 Sunny 59 15 29 -1.6 32 32 NE 10 17 29.62 1003 10 16.0934 0 0
6:15 pm 18:15 Sunny 55 12.6 29 -1.8 37 37 NE 9 15 29.68 1005 10 16.0934 0 0
6:35 pm 18:35 Clear 50 10.1 29 -1.5 45 45 NNE 10 17 29.68 1005 10 16.0934 0 0
6:55 pm 18:55 Clear 48 8.8 29 -1.6 48 48 NNE 10 17 29.71 1006 10 16.0934 0 0
7:15 pm 19:15 Clear 46 7.8 29 -1.7 51 51 NNE 9 15 29.71 1006 10 16.0934 0 0
7:35 pm 19:35 Clear 48 8.8 29 -1.7 48 48 NNE 9 15 29.74 1007 10 16.0934 0 0
7:55 pm 19:55 Clear 46 7.8 28 -2 50 50 NNE 10 17 29.74 1007 10 16.0934 0 0
8:15 pm 20:15 Clear 44 6.5 28 -2.1 55 55 NNE 9 15 29.77 1008 10 16.0934 0 0
8:35 pm 20:35 Clear 44 6.6 28 -2.5 53 53 NNE 10 17 29.74 1007 10 16.0934 0 0
8:55 pm 20:55 Clear 42 5.7 27 -2.7 55 55 NNE 8 13 29.8 1009 10 16.0934 0 0
9:15 pm 21:15 Clear 40 4.2 26 -3.3 59 59 NNE 8 13 29.8 1009 10 16.0934 0 0
9:35 pm 21:35 Clear 39 3.7 26 -3.4 60 60 NNE 7 11 29.8 1009 10 16.0934 0 0
9:55 pm 21:55 Clear 36 2.3 25 -3.9 64 64 NNE 6 9 29.83 1010 10 16.0934 0 0
10:15 pm 22:15 Clear 36 2.4 26 -3.6 65 65 NNE 5 7 29.85 1011 10 16.0934 0 0
10:35 pm 22:35 Clear 37 2.5 25 -3.7 64 64 NNE 5 7 29.83 1010 10 16.0934 0 0
10:55 pm 22:55 Clear 38 3.1 26 -3.6 62 62 N 6 9 29.85 1011 10 16.0934 0 0
11:15 pm 23:15 Clear 37 2.8 25 -3.8 62 62 NNE 10 17 29.85 1011 10 16.0934 0 0
11:35 pm 23:35 Clear 35 1.5 25 -4 67 67 NNE 10 17 29.85 1011 10 16.0934 0 0
11:55 pm 23:55 Clear 34 1.1 25 -4 69 69 NNE 8 13 29.85 1011 10 16.0934 0 0

Powered by AerisWeather